International Virtual Aviation Organisation

Russian Federation and Kazakhstan MCD

 

Карточка аэропорта UNNT

Внимание!
Информация на этой странице в стадии наполнения.
Если вы не увидели какой-то информации, или заметили неточность - пожалуйста сообщите нам!
Спасибо!
Команда RU-STAFF
Название аэропортаТолмачево
Название аэропорта (англ.)Tolmachevo
Превышение367 ft. (111.9 m.)
Координаты55°0.77999999999989', 82°38.178'
Высота перехода1300m
Эшелон переходаFL060
Коды ответчика5201-5277
Зона ОрВДНовосибирск РПИ (UNNT)
Данные METARUNNT 302200Z 26005MPS 9999 OVC008 01/00 Q1030 R25/290160 R34/290160 NOSIG RMK QFE762/1016
Проноз погоды (TAF)UNNT 302000Z 3021/3121 23003G08MPS 9999 BKN007 BKN020CB TEMPO 3021/3106 3000 -SHSNRA BKN005 BKN016CB BECMG 3109/3112 BKN033CB
NOTAMshow/hide NOTAM
AWOS   TABLE

Информация о ВПП

ВПП Длина ВПП (м.) Покрытие Курс ВПП Частота ILS
073597Асфальтобетон72110.1
253597Асфальтобетон252108.5
163602Цементобетон161109.7
343602Цементобетон341111.1

Диспетчерские позиции

Позывной Наименование органа УВД Частота
UNNT_GNDНовосибирск Руление121.7
UNNT_TWRНовосибирск Вышка118.5
UNNT_R_APPНовосибирск Круг122.0
UNNT_APPНовосибирск Подход127.5



Спутниковое изображение